This is the latest recevied weather packets stored in our database for station/object KR8N. If no packets are shown the sender has not sent any weather packets the latest 10 day(s).
| Time | Temp. | Humidity | Pressure | Rain* | Wind** | Luminosity | Snow |
|---|---|---|---|---|---|---|---|
| 1777914486 | 17.22° C | 55% | 1016.8 hPa | 0 mm | - | 501 W/m² | - |
| 1777914184 | 17.22° C | 55% | 1017.1 hPa | 0 mm | - | 276 W/m² | - |
| 1777913880 | 17.22° C | 53% | 1016.9 hPa | 0 mm | - | 205 W/m² | - |
| 1777913576 | 16.67° C | 58% | 1017.2 hPa | 0 mm | - | 496 W/m² | - |
| 1777913272 | 16.11° C | 60% | 1017.4 hPa | 0 mm | - | 333 W/m² | - |
| 1777912970 | 16.11° C | 57% | 1017.3 hPa | 0 mm | - | 208 W/m² | - |
| 1777912666 | 16.67° C | 58% | 1017.5 hPa | 0 mm | - | 216 W/m² | - |
| 1777912362 | 16.67° C | 54% | 1017.5 hPa | 0 mm | - | 259 W/m² | - |
| 1777912058 | 17.22° C | 53% | 1017.5 hPa | 0 mm | - | 432 W/m² | - |
| 1777911754 | 16.67° C | 53% | 1017.6 hPa | 0 mm | - | 532 W/m² | - |
| 1777911451 | 16.67° C | 56% | 1017.9 hPa | 0 mm | - | 359 W/m² | - |
| 1777911148 | 16.67° C | 54% | 1017.9 hPa | 0 mm | - | 230 W/m² | - |
| 1777910845 | 16.11° C | 54% | 1018 hPa | 0 mm | - | 393 W/m² | - |
| 1777910541 | 16.11° C | 54% | 1017.7 hPa | 0 mm | - | 340 W/m² | - |
| 1777910239 | 16.11° C | 55% | 1017.9 hPa | 0 mm | - | 580 W/m² | - |
| 1777909936 | 16.67° C | 52% | 1017.8 hPa | 0 mm | - | 299 W/m² | - |
| 1777909632 | 16.67° C | 53% | 1018.2 hPa | 0 mm | - | 593 W/m² | - |
| 1777909330 | 16.67° C | 58% | 1018.3 hPa | 0 mm | - | 917 W/m² | - |
| 1777909028 | 15.56° C | 57% | 1018.4 hPa | 0 mm | - | 953 W/m² | - |
| 1777908725 | 15° C | 63% | 1018.4 hPa | 0 mm | - | 652 W/m² | - |
| 1777908422 | 15° C | 61% | 1018.3 hPa | 0 mm | - | 493 W/m² | - |
| 1777908119 | 13.89° C | 65% | 1018.2 hPa | 0 mm | - | 607 W/m² | - |
| 1777907815 | 13.89° C | 65% | 1018.5 hPa | 0 mm | - | 353 W/m² | - |
| 1777907510 | 13.89° C | 61% | 1018.6 hPa | 0 mm | - | 209 W/m² | - |
| 1777907207 | 14.44° C | 56% | 1018.7 hPa | 0 mm | - | 80 W/m² | - |
* Rain latest hour (hover to see other rain measurements)
** Current wind speed in m/s (hover to see current wind gust speed)